Find Starlink 4572

NORAD ID: 53692 Int'l Des: 2022-105 Owner: SPXS Country: US Constellation: starlink operational
LEOCIRCULARRETROGRADESSO

現在のビュー

3D地球を読み込み中...

Starlink 4572について

説明を読み込み中...

次回通過

Passes for default location (London). Set your location on the main map for personalized predictions.

高度履歴

Loading altitude history...

軌道要素

1 53692U 22105AW 26149.27360292 .00009982 00000-0 39749-3 0 9991
2 53692 97.6100 37.3710 0002410 80.0909 280.0600 15.25446175205827
Epoch: May 29, 2026 • Age: 25 hours

現在のステータス

高度 510.0 km
速度 7.61 km/s
衛星直下点 -49.15°S, 146°W
打ち上げ日 Aug 31, 2022
運用期間 3.7 years
タイプ internet

技術仕様

分類 Payload
質量 300.00 kg
乾燥質量 290.00 kg
総質量 300.00 kg
長さ 0.20 m
直径 2.80 m
スパン 9.00 m
形状 Box + pan
製造者 SPXS
バスタイプ Starlink
フェーズステータス In Orbit
所有者/国 SPXS/US

Most Searched